Location: Newark
(25.6108°S, 54.5803°W)
Time: 07:26:24
(UTC+00:00)

Courier 1B - Pass Details

Date: 28 October 2020
Orbit: 962 x 1209 km, 28.3° (Epoch: 02 December)

Event Time Altitude Azimuth Distance (km) Brightness Sun altitude
Rises 01:03:34 0° 305° (NW) 3,929 10.8 -38.6°
Enters shadow 01:05:38 - 308° (NW) 3,242 10.3 -38.9°
Reaches altitude 10° 01:06:21 10° 309° (NW) 3,008 - -39.0°
Maximum altitude 01:13:36 54° 24° (NNE) 1,408 - -40.1°
Drops below altitude 10° 01:21:11 10° 98° (E) 3,144 - -41.3°
Sets 01:24:09 0° 102° (ESE) 4,119 - -41.7°
